Time,TemperatureF,DewpointF,PressureIn,WindDirection,WindDirectionDegrees,WindSpeedMPH,WindSpeedGustMPH,Humidity,HourlyPrecipIn,Conditions,Clouds,dailyrainin,SoftwareType,DateUTC
2013-04-05 00:00:00,73.2,71.4,30.00,SSE,152,2.0,2.0,94,0.00,,,0.00,Wunderground v.1.15,2013-04-05 04:00:00,
2013-04-05 00:10:00,73.3,71.5,29.99,SSE,149,2.0,2.0,94,0.00,,,0.00,Wunderground v.1.15,2013-04-05 04:10:00,
2013-04-05 00:20:00,73.3,71.5,29.99,SW,219,2.0,2.0,94,0.00,,,0.00,Wunderground v.1.15,2013-04-05 04:20:00,
2013-04-05 00:30:00,73.3,71.5,30.00,SW,231,2.0,2.0,94,0.00,,,0.00,Wunderground v.1.15,2013-04-05 04:30:00,
2013-04-05 00:40:00,73.2,71.4,30.00,SE,134,2.0,2.0,94,0.00,,,0.00,Wunderground v.1.15,2013-04-05 04:40:00,
2013-04-05 00:50:00,72.9,71.4,29.98,WSW,250,2.0,3.0,95,0.00,,,0.00,Wunderground v.1.15,2013-04-05 04:50:00,
2013-04-05 01:00:00,72.8,71.3,29.99,WNW,291,2.0,4.0,95,0.00,,,0.00,Wunderground v.1.15,2013-04-05 05:00:00,
2013-04-05 01:10:00,72.3,70.8,29.99,West,270,4.0,6.0,95,0.00,,,0.00,Wunderground v.1.15,2013-04-05 05:10:00,
2013-04-05 01:20:00,71.2,69.7,29.99,WNW,293,9.0,9.0,95,0.00,,,0.00,Wunderground v.1.15,2013-04-05 05:20:00,
2013-04-05 01:30:00,70.8,69.3,29.97,NW,304,7.0,7.0,95,0.00,,,0.00,Wunderground v.1.15,2013-04-05 05:30:00,
2013-04-05 01:40:00,70.7,69.5,29.97,WNW,297,3.0,3.0,96,0.00,,,0.00,Wunderground v.1.15,2013-04-05 05:40:00,
2013-04-05 01:50:00,70.5,69.0,29.95,West,264,2.0,2.0,95,0.00,,,0.00,Wunderground v.1.15,2013-04-05 05:50:00,
2013-04-05 02:00:00,70.4,69.2,29.95,WSW,252,2.0,2.0,96,0.00,,,0.00,Wunderground v.1.15,2013-04-05 06:00:00,
2013-04-05 02:10:00,70.5,69.3,29.96,West,276,3.0,4.0,96,0.00,,,0.01,Wunderground v.1.15,2013-04-05 06:10:00,
2013-04-05 02:20:00,69.5,68.0,29.94,SW,228,4.0,5.0,95,0.17,,,0.06,Wunderground v.1.15,2013-04-05 06:20:00,
2013-04-05 02:30:00,68.9,67.7,29.93,WNW,282,5.0,5.0,96,0.07,,,0.07,Wunderground v.1.15,2013-04-05 06:30:00,
2013-04-05 02:40:00,68.7,67.5,29.92,West,280,4.0,4.0,96,0.00,,,0.07,Wunderground v.1.15,2013-04-05 06:40:00,
2013-04-05 02:50:00,68.3,67.1,29.91,WNW,283,3.0,3.0,96,0.00,,,0.07,Wunderground v.1.15,2013-04-05 06:50:00,
2013-04-05 03:00:00,67.9,66.7,29.93,WNW,291,3.0,4.0,96,0.00,,,0.07,Wunderground v.1.15,2013-04-05 07:00:00,
2013-04-05 03:10:00,67.6,66.4,29.95,West,266,5.0,5.0,96,0.00,,,0.07,Wunderground v.1.15,2013-04-05 07:10:00,
2013-04-05 03:20:00,67.6,66.4,29.98,South,177,4.0,8.0,96,0.00,,,0.07,Wunderground v.1.15,2013-04-05 07:20:00,
2013-04-05 03:30:00,67.7,66.5,30.00,South,190,8.0,8.0,96,0.63,,,0.11,Wunderground v.1.15,2013-04-05 07:30:00,
2013-04-05 03:40:00,66.6,65.1,29.95,SSW,201,4.0,5.0,95,1.45,,,0.29,Wunderground v.1.15,2013-04-05 07:40:00,
2013-04-05 03:50:00,65.8,64.3,29.97,SW,233,5.0,5.0,95,0.18,,,0.37,Wunderground v.1.15,2013-04-05 07:50:00,
2013-04-05 04:00:00,65.6,64.4,29.96,West,274,5.0,5.0,96,0.09,,,0.38,Wunderground v.1.15,2013-04-05 08:00:00,
2013-04-05 04:10:00,65.7,64.5,29.96,SSW,212,2.0,2.0,96,0.04,,,0.38,Wunderground v.1.15,2013-04-05 08:10:00,
2013-04-05 04:20:00,66.0,64.8,29.97,SSE,167,2.0,2.0,96,0.00,,,0.38,Wunderground v.1.15,2013-04-05 08:20:00,
2013-04-05 04:30:00,66.1,64.9,29.99,SSW,197,3.0,3.0,96,0.00,,,0.38,Wunderground v.1.15,2013-04-05 08:30:00,
2013-04-05 04:40:00,65.9,64.7,29.98,SW,221,2.0,3.0,96,0.20,,,0.40,Wunderground v.1.15,2013-04-05 08:40:00,
2013-04-05 04:50:00,65.7,64.5,29.98,SW,233,3.0,5.0,96,0.22,,,0.43,Wunderground v.1.15,2013-04-05 08:50:00,
2013-04-05 05:10:00,65.8,64.9,29.98,South,191,3.0,3.0,97,0.19,,,0.51,Wunderground v.1.15,2013-04-05 09:10:00,
2013-04-05 05:20:00,65.6,64.7,29.96,WSW,242,2.0,2.0,97,0.12,,,0.53,Wunderground v.1.15,2013-04-05 09:20:00,
2013-04-05 05:30:00,65.3,64.4,29.96,South,169,1.0,2.0,97,0.05,,,0.54,Wunderground v.1.15,2013-04-05 09:30:00,
2013-04-05 05:40:00,65.4,64.5,29.95,SE,140,2.0,3.0,97,0.05,,,0.54,Wunderground v.1.15,2013-04-05 09:40:00,
2013-04-05 05:50:00,65.3,64.4,29.92,SE,127,4.0,4.0,97,0.00,,,0.54,Wunderground v.1.15,2013-04-05 09:50:00,
2013-04-05 06:00:00,65.3,64.4,29.92,South,180,4.0,5.0,97,0.00,,,0.55,Wunderground v.1.15,2013-04-05 10:00:00,
2013-04-05 06:10:00,65.5,64.6,29.91,South,174,5.0,5.0,97,0.00,,,0.55,Wunderground v.1.15,2013-04-05 10:10:00,
2013-04-05 06:20:00,65.6,64.7,29.94,South,174,6.0,6.0,97,0.00,,,0.55,Wunderground v.1.15,2013-04-05 10:20:00,
2013-04-05 06:30:00,65.9,65.0,29.95,SSE,167,6.0,11.0,97,0.21,,,0.57,Wunderground v.1.15,2013-04-05 10:30:00,
2013-04-05 06:40:00,66.0,65.1,29.94,South,191,6.0,7.0,97,0.10,,,0.59,Wunderground v.1.15,2013-04-05 10:40:00,
2013-04-05 06:50:00,66.0,65.1,29.93,SSW,198,7.0,7.0,97,0.11,,,0.61,Wunderground v.1.15,2013-04-05 10:50:00,
2013-04-05 07:00:00,66.0,65.1,29.93,South,177,7.0,7.0,97,0.15,,,0.63,Wunderground v.1.15,2013-04-05 11:00:00,
2013-04-05 07:10:00,66.2,65.3,29.92,South,188,6.0,6.0,97,0.16,,,0.65,Wunderground v.1.15,2013-04-05 11:10:00,
2013-04-05 07:20:00,66.3,65.4,29.92,SE,146,6.0,8.0,97,0.06,,,0.66,Wunderground v.1.15,2013-04-05 11:20:00,
2013-04-05 07:30:00,66.3,65.4,29.90,SSW,199,8.0,8.0,97,0.06,,,0.66,Wunderground v.1.15,2013-04-05 11:30:00,
2013-04-05 07:40:00,66.5,65.6,29.90,NE,49,8.0,8.0,97,0.14,,,0.68,Wunderground v.1.15,2013-04-05 11:40:00,
2013-04-05 07:50:00,66.9,65.7,29.89,South,172,8.0,8.0,96,0.04,,,0.68,Wunderground v.1.15,2013-04-05 11:50:00,
2013-04-05 08:00:00,67.2,66.0,29.89,South,187,6.0,6.0,96,0.00,,,0.68,Wunderground v.1.15,2013-04-05 12:00:00,
2013-04-05 08:10:00,67.6,66.4,29.89,SSE,162,6.0,6.0,96,0.00,,,0.68,Wunderground v.1.15,2013-04-05 12:10:00,
2013-04-05 08:20:00,67.9,66.7,29.87,SSE,153,7.0,7.0,96,0.00,,,0.68,Wunderground v.1.15,2013-04-05 12:20:00,
2013-04-05 08:30:00,68.1,66.6,29.88,SE,143,8.0,8.0,95,0.00,,,0.68,Wunderground v.1.15,2013-04-05 12:30:00,
2013-04-05 08:40:00,68.5,67.0,29.89,SSW,211,6.0,10.0,95,0.00,,,0.68,Wunderground v.1.15,2013-04-05 12:40:00,
2013-04-05 08:50:00,69.2,67.4,29.90,South,179,6.0,6.0,94,0.00,,,0.68,Wunderground v.1.15,2013-04-05 12:50:00,
2013-04-05 09:00:00,69.9,67.8,29.90,SE,139,4.0,7.0,93,0.00,,,0.68,Wunderground v.1.15,2013-04-05 13:00:00,
2013-04-05 09:10:00,70.5,68.1,29.91,SSE,164,6.0,7.0,92,0.00,,,0.68,Wunderground v.1.15,2013-04-05 13:10:00,
2013-04-05 09:20:00,71.1,68.3,29.91,SSW,193,6.0,6.0,91,0.00,,,0.68,Wunderground v.1.15,2013-04-05 13:20:00,
2013-04-05 09:30:00,71.5,68.4,29.92,West,268,4.0,4.0,90,0.00,,,0.68,Wunderground v.1.15,2013-04-05 13:30:00,
2013-04-05 09:40:00,71.8,68.4,29.95,SSW,198,3.0,3.0,89,0.00,,,0.68,Wunderground v.1.15,2013-04-05 13:40:00,
2013-04-05 09:50:00,72.0,68.2,29.96,NW,304,3.0,5.0,88,0.00,,,0.68,Wunderground v.1.15,2013-04-05 13:50:00,
2013-04-05 10:00:00,71.8,68.1,29.97,NW,309,4.0,6.0,88,0.00,,,0.68,Wunderground v.1.15,2013-04-05 14:00:00,
2013-04-05 10:10:00,70.8,67.1,29.97,NW,323,5.0,7.0,88,0.00,,,0.68,Wunderground v.1.15,2013-04-05 14:10:00,
2013-04-05 10:20:00,70.2,66.8,29.97,WNW,293,4.0,4.0,89,0.00,,,0.68,Wunderground v.1.15,2013-04-05 14:20:00,
2013-04-05 10:30:00,69.8,66.4,29.95,NW,307,3.0,3.0,89,0.00,,,0.68,Wunderground v.1.15,2013-04-05 14:30:00,
2013-04-05 10:40:00,69.7,66.6,29.96,WNW,293,3.0,3.0,90,0.00,,,0.68,Wunderground v.1.15,2013-04-05 14:40:00,
2013-04-05 10:50:00,69.9,66.8,29.96,WNW,285,4.0,4.0,90,0.00,,,0.68,Wunderground v.1.15,2013-04-05 14:50:00,
2013-04-05 11:00:00,70.0,66.9,29.95,NW,307,4.0,4.0,90,0.00,,,0.68,Wunderground v.1.15,2013-04-05 15:00:00,
2013-04-05 11:10:00,70.1,67.0,29.97,NW,309,4.0,4.0,90,0.00,,,0.68,Wunderground v.1.15,2013-04-05 15:10:00,
2013-04-05 11:20:00,70.3,67.2,29.97,WNW,291,3.0,3.0,90,0.00,,,0.68,Wunderground v.1.15,2013-04-05 15:20:00,
2013-04-05 11:30:00,70.7,67.3,29.95,WNW,282,2.0,3.0,89,0.00,,,0.68,Wunderground v.1.15,2013-04-05 15:30:00,
2013-04-05 11:40:00,70.8,67.1,29.95,WSW,246,1.0,2.0,88,0.00,,,0.68,Wunderground v.1.15,2013-04-05 15:40:00,
2013-04-05 11:50:00,71.2,67.5,29.94,ENE,67,2.0,2.0,88,0.00,,,0.68,Wunderground v.1.15,2013-04-05 15:50:00,
2013-04-05 12:00:00,71.3,67.6,29.94,SSE,162,4.0,4.0,88,0.00,,,0.68,Wunderground v.1.15,2013-04-05 16:00:00,
2013-04-05 12:10:00,71.2,67.5,29.95,South,186,5.0,5.0,88,0.00,,,0.68,Wunderground v.1.15,2013-04-05 16:10:00,
2013-04-05 12:20:00,71.1,67.4,29.95,SW,221,3.0,3.0,88,0.00,,,0.68,Wunderground v.1.15,2013-04-05 16:20:00,
2013-04-05 12:30:00,71.5,67.4,29.94,SSW,209,4.0,5.0,87,0.00,,,0.68,Wunderground v.1.15,2013-04-05 16:30:00,
2013-04-05 12:40:00,71.9,67.8,29.93,WSW,257,3.0,3.0,87,0.00,,,0.68,Wunderground v.1.15,2013-04-05 16:40:00,
2013-04-05 12:50:00,72.3,67.9,29.93,SSW,200,2.0,2.0,86,0.00,,,0.68,Wunderground v.1.15,2013-04-05 16:50:00,
2013-04-05 13:00:00,72.2,66.7,29.92,SSW,211,4.0,5.0,83,0.00,,,0.68,Wunderground v.1.15,2013-04-05 17:00:00,
2013-04-05 13:10:00,72.7,66.5,29.92,WSW,255,3.0,3.0,81,0.00,,,0.68,Wunderground v.1.15,2013-04-05 17:10:00,
2013-04-05 13:20:00,72.6,66.4,29.90,WNW,288,3.0,3.0,81,0.00,,,0.68,Wunderground v.1.15,2013-04-05 17:20:00,
2013-04-05 13:30:00,72.1,66.3,29.90,SSW,203,3.0,3.0,82,0.00,,,0.68,Wunderground v.1.15,2013-04-05 17:30:00,
2013-04-05 13:40:00,71.7,66.3,29.92,West,269,4.0,10.0,83,0.00,,,0.69,Wunderground v.1.15,2013-04-05 17:40:00,
2013-04-05 13:50:00,71.7,66.6,29.92,West,260,4.0,4.0,84,0.00,,,0.69,Wunderground v.1.15,2013-04-05 17:50:00,
2013-04-05 14:00:00,71.3,65.9,29.91,West,264,5.0,6.0,83,0.00,,,0.69,Wunderground v.1.15,2013-04-05 18:00:00,
2013-04-05 14:10:00,70.9,65.8,29.90,WSW,249,7.0,7.0,84,0.00,,,0.69,Wunderground v.1.15,2013-04-05 18:10:00,
2013-04-05 14:20:00,69.4,65.7,29.89,WSW,248,6.0,6.0,88,0.00,,,0.69,Wunderground v.1.15,2013-04-05 18:20:00,
2013-04-05 14:30:00,69.0,65.6,29.89,WSW,245,7.0,10.0,89,0.00,,,0.69,Wunderground v.1.15,2013-04-05 18:30:00,
2013-04-05 14:40:00,69.0,65.6,29.89,WNW,288,5.0,6.0,89,0.00,,,0.69,Wunderground v.1.15,2013-04-05 18:40:00,
2013-04-05 14:50:00,69.1,65.4,29.89,SW,218,5.0,6.0,88,0.00,,,0.69,Wunderground v.1.15,2013-04-05 18:50:00,
2013-04-05 15:00:00,69.1,65.4,29.88,WSW,253,6.0,6.0,88,0.00,,,0.69,Wunderground v.1.15,2013-04-05 19:00:00,
2013-04-05 15:10:00,69.1,65.7,29.89,WSW,243,5.0,11.0,89,0.00,,,0.69,Wunderground v.1.15,2013-04-05 19:10:00,
2013-04-05 15:20:00,68.8,65.4,29.89,NW,316,5.0,5.0,89,0.00,,,0.69,Wunderground v.1.15,2013-04-05 19:20:00,
2013-04-05 15:30:00,68.0,64.3,29.88,NNW,344,4.0,8.0,88,0.00,,,0.70,Wunderground v.1.15,2013-04-05 19:30:00,
2013-04-05 15:40:00,67.4,64.0,29.88,SSW,205,5.0,5.0,89,0.05,,,0.71,Wunderground v.1.15,2013-04-05 19:40:00,
2013-04-05 15:50:00,66.9,64.2,29.90,West,278,5.0,6.0,91,0.16,,,0.74,Wunderground v.1.15,2013-04-05 19:50:00,
2013-04-05 16:00:00,66.4,63.7,29.89,SSW,205,5.0,5.0,91,0.11,,,0.75,Wunderground v.1.15,2013-04-05 20:00:00,
2013-04-05 16:10:00,66.0,63.6,29.86,SW,229,6.0,6.0,92,0.12,,,0.77,Wunderground v.1.15,2013-04-05 20:10:00,
2013-04-05 16:20:00,65.9,63.8,29.85,SSE,152,5.0,5.0,93,0.06,,,0.78,Wunderground v.1.15,2013-04-05 20:20:00,
2013-04-05 16:30:00,66.0,64.2,29.85,SW,226,4.0,4.0,94,0.08,,,0.79,Wunderground v.1.15,2013-04-05 20:30:00,
2013-04-05 16:40:00,65.9,64.1,29.86,SSW,203,4.0,5.0,94,0.00,,,0.79,Wunderground v.1.15,2013-04-05 20:40:00,
2013-04-05 16:50:00,65.8,64.0,29.87,WSW,250,6.0,6.0,94,0.10,,,0.81,Wunderground v.1.15,2013-04-05 20:50:00,
2013-04-05 17:00:00,65.9,64.4,29.88,SW,236,4.0,11.0,95,0.05,,,0.81,Wunderground v.1.15,2013-04-05 21:00:00,
2013-04-05 17:10:00,65.8,64.0,29.88,West,280,6.0,6.0,94,0.00,,,0.81,Wunderground v.1.15,2013-04-05 21:10:00,
2013-04-05 17:20:00,65.9,64.1,29.89,WSW,242,4.0,5.0,94,0.00,,,0.81,Wunderground v.1.15,2013-04-05 21:20:00,
2013-04-05 17:30:00,65.9,64.4,29.89,WSW,249,4.0,5.0,95,0.00,,,0.81,Wunderground v.1.15,2013-04-05 21:30:00,
2013-04-05 17:40:00,65.9,64.4,29.88,WSW,243,3.0,6.0,95,0.00,,,0.81,Wunderground v.1.15,2013-04-05 21:40:00,
2013-04-05 17:50:00,66.0,64.5,29.88,South,191,4.0,8.0,95,0.00,,,0.81,Wunderground v.1.15,2013-04-05 21:50:00,
2013-04-05 18:00:00,66.1,64.6,29.87,WSW,246,4.0,6.0,95,0.00,,,0.81,Wunderground v.1.15,2013-04-05 22:00:00,
2013-04-05 18:10:00,66.1,64.3,29.85,SW,225,4.0,4.0,94,0.00,,,0.81,Wunderground v.1.15,2013-04-05 22:10:00,
2013-04-05 18:20:00,66.1,64.3,29.84,SW,225,3.0,3.0,94,0.00,,,0.81,Wunderground v.1.15,2013-04-05 22:20:00,
2013-04-05 18:30:00,66.2,64.4,29.84,WSW,245,3.0,3.0,94,0.00,,,0.81,Wunderground v.1.15,2013-04-05 22:30:00,
2013-04-05 18:40:00,66.3,64.5,29.85,SW,228,3.0,4.0,94,0.00,,,0.81,Wunderground v.1.15,2013-04-05 22:40:00,
2013-04-05 18:50:00,66.4,64.6,29.85,SW,217,4.0,4.0,94,0.00,,,0.81,Wunderground v.1.15,2013-04-05 22:50:00,
2013-04-05 19:00:00,67.1,65.3,29.85,SW,221,2.0,4.0,94,0.00,,,0.81,Wunderground v.1.15,2013-04-05 23:00:00,
2013-04-05 19:10:00,67.5,65.4,29.85,SW,221,3.0,3.0,93,0.00,,,0.81,Wunderground v.1.15,2013-04-05 23:10:00,
2013-04-05 19:20:00,67.6,65.2,29.84,West,274,2.0,3.0,92,0.00,,,0.81,Wunderground v.1.15,2013-04-05 23:20:00,
2013-04-05 19:30:00,67.2,64.8,29.85,WNW,288,2.0,2.0,92,0.00,,,0.81,Wunderground v.1.15,2013-04-05 23:30:00,
2013-04-05 19:40:00,66.9,64.5,29.85,WNW,284,2.0,3.0,92,0.00,,,0.81,Wunderground v.1.15,2013-04-05 23:40:00,
2013-04-05 19:50:00,66.8,64.7,29.86,WSW,257,3.0,3.0,93,0.00,,,0.81,Wunderground v.1.15,2013-04-05 23:50:00,
2013-04-05 20:00:00,66.6,64.5,29.86,SSW,207,2.0,2.0,93,0.00,,,0.81,Wunderground v.1.15,2013-04-06 00:00:00,
2013-04-05 20:10:00,66.4,64.6,29.86,West,263,3.0,5.0,94,0.00,,,0.81,Wunderground v.1.15,2013-04-06 00:10:00,
2013-04-05 20:20:00,66.2,64.4,29.86,WSW,252,3.0,3.0,94,0.00,,,0.81,Wunderground v.1.15,2013-04-06 00:20:00,
2013-04-05 20:30:00,66.1,64.3,29.87,West,264,2.0,2.0,94,0.00,,,0.81,Wunderground v.1.15,2013-04-06 00:30:00,
2013-04-05 20:40:00,65.9,64.4,29.88,West,270,2.0,3.0,95,0.00,,,0.81,Wunderground v.1.15,2013-04-06 00:40:00,
2013-04-05 20:50:00,65.8,64.3,29.88,West,271,2.0,2.0,95,0.00,,,0.81,Wunderground v.1.15,2013-04-06 00:50:00,
2013-04-05 21:00:00,65.7,64.2,29.88,WSW,239,1.0,2.0,95,0.00,,,0.81,Wunderground v.1.15,2013-04-06 01:00:00,
2013-04-05 21:10:00,65.6,64.1,29.89,SW,221,1.0,3.0,95,0.00,,,0.81,Wunderground v.1.15,2013-04-06 01:10:00,
2013-04-05 21:20:00,65.5,64.3,29.89,SSW,212,1.0,1.0,96,0.00,,,0.81,Wunderground v.1.15,2013-04-06 01:20:00,
2013-04-05 21:30:00,65.5,64.3,29.89,SE,127,2.0,2.0,96,0.00,,,0.81,Wunderground v.1.15,2013-04-06 01:30:00,
2013-04-05 21:40:00,65.5,64.3,29.90,WSW,250,2.0,2.0,96,0.00,,,0.81,Wunderground v.1.15,2013-04-06 01:40:00,
2013-04-05 21:50:00,65.4,64.2,29.90,West,274,2.0,3.0,96,0.00,,,0.81,Wunderground v.1.15,2013-04-06 01:50:00,
2013-04-05 22:00:00,65.4,64.2,29.90,West,262,3.0,3.0,96,0.00,,,0.81,Wunderground v.1.15,2013-04-06 02:00:00,
2013-04-05 22:10:00,65.4,64.2,29.91,West,272,2.0,3.0,96,0.00,,,0.81,Wunderground v.1.15,2013-04-06 02:10:00,
2013-04-05 22:20:00,65.4,64.5,29.91,WSW,248,3.0,3.0,97,0.00,,,0.81,Wunderground v.1.15,2013-04-06 02:20:00,
2013-04-05 22:30:00,65.5,64.6,29.92,West,260,3.0,3.0,97,0.00,,,0.81,Wunderground v.1.15,2013-04-06 02:30:00,
2013-04-05 22:40:00,65.5,64.6,29.92,SW,236,2.0,2.0,97,0.00,,,0.81,Wunderground v.1.15,2013-04-06 02:40:00,
2013-04-05 22:50:00,65.5,64.6,29.92,WSW,243,2.0,3.0,97,0.00,,,0.81,Wunderground v.1.15,2013-04-06 02:50:00,
2013-04-05 23:00:00,65.5,64.6,29.93,WSW,256,2.0,3.0,97,0.00,,,0.81,Wunderground v.1.15,2013-04-06 03:00:00,
2013-04-05 23:10:00,65.5,64.6,29.93,SSW,194,0.0,0.0,97,0.00,,,0.81,Wunderground v.1.15,2013-04-06 03:10:00,
2013-04-05 23:30:00,65.7,64.8,29.93,WSW,252,1.0,2.0,97,0.00,,,0.81,Wunderground v.1.15,2013-04-06 03:30:00,
2013-04-05 23:40:00,65.8,64.9,29.93,WSW,257,1.0,1.0,97,0.00,,,0.81,Wunderground v.1.15,2013-04-06 03:40:00,
2013-04-05 23:50:00,65.8,64.9,29.94,West,266,1.0,1.0,97,0.00,,,0.81,Wunderground v.1.15,2013-04-06 03:50:00,